| time (UTC) | temp F | wind direction | speed MPH | gust MPH | rain 1hr in | rain 24hr in | rain mn in | humidity % | barometer mb |
| 20260506154540 | 59 | 333 | 1.0 | 3.0 | 0.00 | 0.02 | 0.00 | 78 | 1019.3 |
| 20260506153037 | 59 | 333 | 0.0 | 3.0 | 0.00 | 0.02 | 0.00 | 79 | 1019.3 |
| 20260506151549 | 59 | 333 | 0.0 | 4.0 | 0.00 | 0.02 | 0.00 | 79 | 1019.3 |
| 20260506150036 | 59 | 333 | 1.0 | 4.0 | 0.00 | 0.02 | 0.00 | 80 | 1019.3 |
| 20260506144535 | 58 | 333 | 0.0 | 2.0 | 0.00 | 0.02 | 0.00 | 81 | 1019.2 |
| 20260506143042 | 58 | 333 | 0.0 | 4.0 | 0.00 | 0.02 | 0.00 | 81 | 1019.1 |
| 20260506141530 | 58 | 333 | 0.0 | 3.0 | 0.00 | 0.02 | 0.00 | 82 | 1019.0 |
| 20260506140033 | 58 | 333 | 0.0 | 3.0 | 0.00 | 0.02 | 0.00 | 82 | 1018.9 |
| 20260506134527 | 57 | 333 | 0.0 | 4.0 | 0.00 | 0.02 | 0.00 | 82 | 1018.7 |
| 20260506133026 | 57 | 333 | 0.0 | 3.0 | 0.00 | 0.02 | 0.00 | 82 | 1018.5 |
| 20260506131526 | 57 | 333 | 0.0 | 0.0 | 0.00 | 0.02 | 0.00 | 82 | 1018.4 |
| 20260506130021 | 57 | 333 | 0.0 | 2.0 | 0.00 | 0.02 | 0.00 | 82 | 1018.2 |
| 20260506124521 | 57 | 333 | 0.0 | 2.0 | 0.00 | 0.02 | 0.00 | 82 | 1018.1 |
| 20260506123020 | 57 | 333 | 0.0 | 2.0 | 0.00 | 0.02 | 0.00 | 82 | 1018.1 |
| 20260506121519 | 57 | 333 | 0.0 | 4.0 | 0.00 | 0.02 | 0.00 | 82 | 1018.1 |
| 20260506120018 | 57 | 333 | 0.0 | 4.0 | 0.00 | 0.02 | 0.00 | 82 | 1018.1 |
| 20260506114521 | 57 | 333 | 0.0 | 3.0 | 0.00 | 0.03 | 0.00 | 82 | 1018.0 |
| 20260506113016 | 57 | 333 | 0.0 | 3.0 | 0.00 | 0.03 | 0.00 | 82 | 1017.8 |
| 20260506111515 | 57 | 333 | 0.0 | 3.0 | 0.00 | 0.03 | 0.00 | 82 | 1017.7 |
| 20260506110015 | 57 | 333 | 0.0 | 1.0 | 0.00 | 0.03 | 0.00 | 83 | 1017.6 |
| 20260506104513 | 57 | 333 | 0.0 | 2.0 | 0.00 | 0.04 | 0.00 | 83 | 1017.5 |
| 20260506103010 | 57 | 333 | 0.0 | 1.0 | 0.00 | 0.04 | 0.00 | 83 | 1017.5 |
| 20260506101504 | 57 | 333 | 0.0 | 0.0 | 0.00 | 0.04 | 0.00 | 83 | 1017.5 |
| 20260506100003 | 56 | 333 | 0.0 | 1.0 | 0.00 | 0.04 | 0.00 | 82 | 1017.5 |
| 20260506094505 | 57 | 333 | 0.0 | 0.0 | 0.00 | 0.04 | 0.00 | 81 | 1017.5 |
| 20260506093105 | 57 | 333 | 0.0 | 0.0 | 0.00 | 0.04 | 0.00 | 81 | 1017.5 |
| 20260506091558 | 57 | 333 | 0.0 | 2.0 | 0.00 | 0.04 | 0.00 | 82 | 1017.5 |
| 20260506084557 | 57 | 333 | 0.0 | 3.0 | 0.00 | 0.04 | 0.00 | 82 | 1017.5 |
| 20260506083056 | 57 | 333 | 0.0 | 2.0 | 0.00 | 0.04 | 0.00 | 82 | 1017.5 |
| 20260506081555 | 57 | 333 | 0.0 | 3.0 | 0.00 | 0.04 | 0.00 | 82 | 1017.6 |
| 20260506073048 | 58 | 333 | 0.0 | 2.0 | 0.00 | 0.04 | 0.00 | 81 | 1017.4 |
| 20260506071600 | 58 | 333 | 1.0 | 4.0 | 0.00 | 0.04 | 0.00 | 80 | 1017.2 |
| 20260506061538 | 59 | 333 | 1.0 | 5.0 | 0.00 | 0.04 | 0.04 | 80 | 1016.9 |
| 20260506044531 | 59 | 336 | 2.0 | 8.0 | 0.00 | 0.04 | 0.04 | 79 | 1016.3 |
| 20260506043030 | 59 | 333 | 2.0 | 9.0 | 0.00 | 0.04 | 0.04 | 78 | 1016.1 |
| 20260506041532 | 59 | 355 | 3.0 | 8.0 | 0.00 | 0.04 | 0.04 | 77 | 1016.0 |
| 20260506040028 | 59 | 335 | 3.0 | 10.0 | 0.00 | 0.04 | 0.04 | 77 | 1015.8 |
| 20260506034524 | 59 | 336 | 3.0 | 8.0 | 0.00 | 0.04 | 0.04 | 77 | 1015.5 |
| 20260506033028 | 60 | 339 | 3.0 | 8.0 | 0.00 | 0.04 | 0.04 | 77 | 1015.4 |
| 20260506031525 | 60 | 340 | 3.0 | 9.0 | 0.00 | 0.04 | 0.04 | 76 | 1015.2 |
| 20260506030024 | 60 | 344 | 2.0 | 5.0 | 0.00 | 0.04 | 0.04 | 75 | 1015.0 |
| 20260506024519 | 61 | 344 | 1.0 | 8.0 | 0.00 | 0.04 | 0.04 | 75 | 1014.9 |
| 20260506023018 | 61 | 343 | 2.0 | 6.0 | 0.00 | 0.04 | 0.04 | 74 | 1014.8 |
| 20260506021517 | 61 | 342 | 0.0 | 6.0 | 0.00 | 0.04 | 0.04 | 73 | 1014.6 |
| 20260506020022 | 61 | 342 | 1.0 | 5.0 | 0.00 | 0.04 | 0.04 | 72 | 1014.5 |
| 20260506014519 | 62 | 343 | 1.0 | 6.0 | 0.00 | 0.04 | 0.04 | 72 | 1014.4 |
| 20260506013024 | 62 | 347 | 1.0 | 6.0 | 0.00 | 0.04 | 0.04 | 72 | 1014.5 |
| 20260506011516 | 62 | 334 | 0.0 | 9.0 | 0.00 | 0.04 | 0.04 | 71 | 1014.5 |
| 20260506010023 | 62 | 325 | 1.0 | 6.0 | 0.00 | 0.04 | 0.04 | 71 | 1014.5 |
| 20260506004519 | 62 | 329 | 5.0 | 9.0 | 0.00 | 0.04 | 0.04 | 70 | 1014.4 |
| 20260506003014 | 63 | 331 | 2.0 | 10.0 | 0.00 | 0.04 | 0.04 | 70 | 1014.3 |
| 20260506001514 | 63 | 341 | 1.0 | 8.0 | 0.00 | 0.04 | 0.04 | 69 | 1014.2 |
| 20260506000018 | 63 | 344 | 1.0 | 8.0 | 0.00 | 0.04 | 0.04 | 68 | 1014.0 |
| 20260505234517 | 64 | 9 | 1.0 | 6.0 | 0.00 | 0.04 | 0.04 | 68 | 1014.0 |
| 20260505233011 | 64 | 331 | 1.0 | 6.0 | 0.00 | 0.04 | 0.04 | 67 | 1014.1 |
| 20260505231602 | 64 | 329 | 2.0 | 8.0 | 0.00 | 0.04 | 0.04 | 68 | 1014.2 |
| 20260505230118 | 64 | 336 | 3.0 | 8.0 | 0.00 | 0.04 | 0.04 | 68 | 1014.2 |
| 20260505224558 | 64 | 340 | 1.0 | 10.0 | 0.00 | 0.04 | 0.04 | 69 | 1014.1 |
| 20260505223100 | 64 | 336 | 1.0 | 9.0 | 0.00 | 0.04 | 0.04 | 68 | 1014.2 |
| 20260505221559 | 64 | 334 | 4.0 | 11.0 | 0.00 | 0.04 | 0.04 | 67 | 1014.2 |
| 20260505220051 | 64 | 9 | 2.0 | 11.0 | 0.00 | 0.04 | 0.04 | 69 | 1014.4 |
| 20260505214559 | 64 | 325 | 2.0 | 13.0 | 0.00 | 0.04 | 0.04 | 69 | 1014.5 |
| 20260505213055 | 63 | 342 | 1.0 | 5.0 | 0.00 | 0.04 | 0.04 | 69 | 1014.6 |
| 20260505211544 | 63 | 319 | 2.0 | 6.0 | 0.00 | 0.04 | 0.04 | 68 | 1014.6 |
| 20260505210043 | 63 | 347 | 1.0 | 9.0 | 0.00 | 0.04 | 0.04 | 69 | 1014.7 |
| 20260505204542 | 63 | 294 | 2.0 | 10.0 | 0.00 | 0.04 | 0.04 | 69 | 1014.7 |
| 20260505203045 | 63 | 342 | 1.0 | 6.0 | 0.00 | 0.04 | 0.04 | 70 | 1014.6 |
| 20260505201549 | 63 | 114 | 0.0 | 6.0 | 0.00 | 0.04 | 0.04 | 73 | 1014.7 |
| 20260505200035 | 62 | 207 | 2.0 | 9.0 | 0.00 | 0.04 | 0.04 | 74 | 1014.8 |
| 20260505194534 | 61 | 298 | 1.0 | 8.0 | 0.01 | 0.04 | 0.04 | 75 | 1014.9 |
| 20260505193043 | 61 | 324 | 2.0 | 6.0 | 0.01 | 0.04 | 0.04 | 77 | 1014.9 |
| 20260505191524 | 60 | 329 | 1.0 | 6.0 | 0.01 | 0.04 | 0.04 | 79 | 1014.9 |
| 20260505190030 | 60 | 300 | 1.0 | 6.0 | 0.01 | 0.04 | 0.04 | 80 | 1014.7 |
| 20260505184524 | 59 | 255 | 1.0 | 8.0 | 0.00 | 0.03 | 0.03 | 84 | 1014.7 |
| 20260505183026 | 59 | 284 | 1.0 | 7.0 | 0.01 | 0.03 | 0.03 | 87 | 1014.8 |
| 20260505181517 | 58 | 309 | 0.0 | 5.0 | 0.01 | 0.03 | 0.03 | 90 | 1014.8 |
| 20260505180019 | 57 | 319 | 1.0 | 5.0 | 0.01 | 0.03 | 0.03 | 91 | 1014.6 |
| 20260505174509 | 56 | 319 | 0.0 | 3.0 | 0.01 | 0.03 | 0.03 | 91 | 1014.7 |
| 20260505173008 | 56 | 319 | 0.0 | 3.0 | 0.00 | 0.02 | 0.02 | 91 | 1014.5 |
| 20260505171523 | 55 | 319 | 0.0 | 2.0 | 0.00 | 0.02 | 0.02 | 90 | 1014.4 |
| 20260505170012 | 55 | 319 | 0.0 | 2.0 | 0.00 | 0.02 | 0.02 | 90 | 1014.5 |
| 20260505164511 | 55 | 319 | 0.0 | 2.0 | 0.00 | 0.02 | 0.02 | 89 | 1014.5 |
| 20260505163005 | 55 | 319 | 0.0 | 2.0 | 0.00 | 0.02 | 0.02 | 89 | 1014.4 |
| 20260505161503 | 55 | 319 | 0.0 | 2.0 | 0.00 | 0.02 | 0.02 | 89 | 1014.3 |